This is the latest recevied weather packets stored in our database for station/object KC1TEM-13. If no packets are shown the sender has not sent any weather packets the latest 10 day(s).
| Time | Temp. | Humidity | Pressure | Rain* | Wind** | Luminosity | Snow |
|---|---|---|---|---|---|---|---|
| 1777303542 | 18.33° C | 34% | 1026.1 hPa | 0 mm | - | 851 W/m² | - |
| 1777303239 | 18.33° C | 36% | 1026 hPa | 0 mm | - | 844 W/m² | - |
| 1777302938 | 17.78° C | 36% | 1026 hPa | 0 mm | - | 839 W/m² | - |
| 1777302633 | 17.78° C | 35% | 1025.8 hPa | 0 mm | - | 834 W/m² | - |
| 1777302332 | 18.33° C | 34% | 1026.1 hPa | 0 mm | - | 825 W/m² | - |
| 1777302029 | 18.33° C | 36% | 1026 hPa | 0 mm | - | 816 W/m² | - |
| 1777301728 | 18.33° C | 34% | 1026.2 hPa | 0 mm | - | 807 W/m² | - |
| 1777301424 | 18.33° C | 35% | 1026.1 hPa | 0 mm | - | 803 W/m² | - |
| 1777301121 | 17.78° C | 36% | 1026 hPa | 0 mm | - | 793 W/m² | - |
| 1777300818 | 17.78° C | 35% | 1025.9 hPa | 0 mm | - | 781 W/m² | - |
| 1777300516 | 18.33° C | 35% | 1026 hPa | 0 mm | - | 773 W/m² | - |
| 1777300214 | 18.89° C | 36% | 1026.1 hPa | 0 mm | - | 763 W/m² | - |
| 1777299909 | 18.33° C | 37% | 1025.9 hPa | 0 mm | - | 752 W/m² | - |
| 1777299607 | 17.78° C | 37% | 1025.9 hPa | 0 mm | - | 739 W/m² | - |
| 1777299305 | 17.78° C | 38% | 1026 hPa | 0 mm | - | 728 W/m² | - |
| 1777299001 | 17.22° C | 39% | 1026 hPa | 0 mm | - | 715 W/m² | - |
| 1777298699 | 16.67° C | 39% | 1025.9 hPa | 0 mm | - | 705 W/m² | - |
| 1777298395 | 17.22° C | 38% | 1025.8 hPa | 0 mm | - | 693 W/m² | - |
| 1777298091 | 17.78° C | 37% | 1025.7 hPa | 0 mm | - | 680 W/m² | - |
| 1777297790 | 17.22° C | 37% | 1025.8 hPa | 0 mm | - | 669 W/m² | - |
| 1777297489 | 16.67° C | 38% | 1025.9 hPa | 0 mm | - | 656 W/m² | - |
| 1777297186 | 16.67° C | 37% | 1025.9 hPa | 0 mm | - | 642 W/m² | - |
| 1777296884 | 16.67° C | 38% | 1026 hPa | 0 mm | - | 626 W/m² | - |
| 1777296579 | 16.11° C | 39% | 1025.9 hPa | 0 mm | - | 604 W/m² | - |
| 1777296245 | 16.11° C | 39% | 1025.7 hPa | 0 mm | - | 596 W/m² | - |
* Rain latest hour (hover to see other rain measurements)
** Current wind speed in m/s (hover to see current wind gust speed)